Location: Beuvrequen
(50.8014°N, 1.6652°E)
Time: 02:33:12
(UTC+00:00)

Cosmos 2369 - Pass Details

Date: 16 October 2021
Orbit: 838 x 857 km, 71.0° (Epoch: 05 December)

Event Time Altitude Azimuth Distance (km) Brightness Sun altitude
Rises 18:44:43 0° 211° (SSW) 3,383 7.2 -17.5°
Reaches altitude 10° 18:47:09 10° 212° (SSW) 2,454 6.4 -17.9°
Maximum altitude 18:52:47 81° 300° (WNW) 861 3.8 -18.8°
Drops below altitude 10° 18:58:30 10° 28° (NNE) 2,482 5.9 -19.6°
Sets 19:00:59 0° 30° (NNE) 3,424 6.7 -20.0°
